Location: Saint Louis
(38.6272°N, 90.1978°W)
Time: 19:15:36
(UTC-05:00)

ISS - Pass Details

Date: 08 June 2013
Orbit: 401 x 404 km, 51.6° (Epoch: 24 July)

Event Time Altitude Azimuth Distance (km) Brightness Sun altitude
Rises 02:04:19 0° 318° (NW) 2,341 0.9 -26.7°
Reaches altitude 10° 02:07:01 10° 341° (NNW) 1,472 0.2 -26.5°
Maximum altitude 02:09:07 16° 21° (NNE) 1,170 -0.1 -26.4°
Drops below altitude 10° 02:11:13 10° 61° (ENE) 1,462 0.1 -26.3°
Sets 02:13:53 0° 85° (E) 2,315 0.8 -26.1°
